• In Schweiz
  • Länderverzeichnis
  • Für 7 Tage
  • Wassertemperatur
  • Satellitenkarten
  • Wetterkarte
  • Widgets
  • user-avatar
    Anmelden

    Stündliche Wetter Verhniy Tabyn

    Heute, 16 Juli, Montag

    Zeit Temperatur Niederschläge Wind Luftdruck Luftfeuchtigkeit
    00:00 +20°C° 0,1 mm 3 m/S 747 mmHg 92%
    01:00 +20°C° 0,1 mm 3 m/S 748 mmHg 92%
    02:00 +20°C° 0 mm 3 m/S 748 mmHg 93%
    03:00 +19°C° 0 mm 2 m/S 748 mmHg 93%
    04:00 +19°C° 0 mm 2 m/S 748 mmHg 94%
    05:00 +20°C° 1 mm 2 m/S 748 mmHg 92%
    06:00 +21°C° 1 mm 3 m/S 748 mmHg 91%
    07:00 +22°C° 1 mm 3 m/S 748 mmHg 90%
    08:00 +24°C° 0,6 mm 3 m/S 748 mmHg 87%
    09:00 +25°C° 0,6 mm 3 m/S 748 mmHg 84%
    10:00 +26°C° 0 mm 4 m/S 749 mmHg 81%
    11:00 +27°C° 0,7 mm 4 m/S 749 mmHg 77%
    12:00 +27°C° 0,7 mm 5 m/S 748 mmHg 73%
    13:00 +28°C° 0,7 mm 5 m/S 748 mmHg 69%
    14:00 +28°C° 0,2 mm 5 m/S 748 mmHg 72%
    15:00 +28°C° 0,2 mm 5 m/S 748 mmHg 71%
    16:00 +28°C° 0,2 mm 5 m/S 748 mmHg 71%
    17:00 +28°C° 0,2 mm 4 m/S 748 mmHg 74%
    18:00 +27°C° 0,2 mm 3 m/S 748 mmHg 77%
    19:00 +27°C° 0,2 mm 3 m/S 748 mmHg 80%
    20:00 +25°C° 0,1 mm 3 m/S 748 mmHg 83%
    21:00 +24°C° 0,1 mm 3 m/S 748 mmHg 85%
    22:00 +23°C° 0,1 mm 2 m/S 748 mmHg 88%
    23:00 +21°C° 0 mm 3 m/S 748 mmHg 88%

    Morgen, 17 Juli, Dienstag

    Zeit Temperatur Niederschläge Wind Luftdruck Luftfeuchtigkeit
    00:00 +21°C° 0 mm 3 m/S 748 mmHg 89%
    01:00 +20°C° 0 mm 3 m/S 748 mmHg 89%
    02:00 +20°C° 0 mm 3 m/S 748 mmHg 90%
    03:00 +19°C° 0 mm 2 m/S 748 mmHg 91%
    04:00 +19°C° 0 mm 2 m/S 748 mmHg 92%
    05:00 +19°C° 0 mm 3 m/S 748 mmHg 89%
    06:00 +20°C° 0 mm 3 m/S 748 mmHg 87%
    07:00 +21°C° 0 mm 3 m/S 748 mmHg 84%
    08:00 +22°C° 0 mm 4 m/S 748 mmHg 82%
    09:00 +23°C° 0 mm 4 m/S 748 mmHg 79%
    10:00 +23°C° 0 mm 4 m/S 748 mmHg 76%
    11:00 +25°C° 0 mm 5 m/S 748 mmHg 76%
    12:00 +25°C° 0 mm 5 m/S 748 mmHg 75%
    13:00 +25°C° 0 mm 5 m/S 748 mmHg 75%
    14:00 +25°C° 0 mm 5 m/S 747 mmHg 77%
    15:00 +23°C° 0 mm 5 m/S 747 mmHg 78%
    16:00 +23°C° 0 mm 5 m/S 747 mmHg 80%
    17:00 +23°C° 0,4 mm 4 m/S 747 mmHg 83%
    18:00 +22°C° 0,4 mm 4 m/S 747 mmHg 85%
    19:00 +22°C° 0,4 mm 4 m/S 747 mmHg 88%
    20:00 +22°C° 1,5 mm 4 m/S 746 mmHg 90%
    21:00 +21°C° 1,5 mm 4 m/S 746 mmHg 91%
    22:00 +21°C° 1,5 mm 4 m/S 746 mmHg 93%
    23:00 +21°C° 3 mm 4 m/S 746 mmHg 94%

    übermorgen, 18 Juli, Mittwoch

    Zeit Temperatur Niederschläge Wind Luftdruck Luftfeuchtigkeit
    00:00 +21°C° 3 mm 5 m/S 746 mmHg 94%
    01:00 +20°C° 3 mm 5 m/S 746 mmHg 94%
    02:00 +20°C° 0,4 mm 5 m/S 746 mmHg 94%
    03:00 +20°C° 0,4 mm 5 m/S 745 mmHg 94%
    04:00 +20°C° 0,4 mm 6 m/S 745 mmHg 94%
    05:00 +20°C° 0,4 mm 5 m/S 745 mmHg 94%
    06:00 +20°C° 0,4 mm 5 m/S 745 mmHg 94%
    07:00 +20°C° 0,4 mm 5 m/S 745 mmHg 94%
    08:00 +20°C° 2,4 mm 4 m/S 745 mmHg 94%
    09:00 +20°C° 2,4 mm 4 m/S 745 mmHg 95%
    10:00 +20°C° 2,4 mm 3 m/S 745 mmHg 95%
    11:00 +21°C° 0,3 mm 3 m/S 745 mmHg 93%
    12:00 +22°C° 0,3 mm 3 m/S 745 mmHg 91%
    13:00 +24°C° 0,3 mm 3 m/S 746 mmHg 88%
    14:00 +25°C° 0,2 mm 2 m/S 746 mmHg 85%
    15:00 +26°C° 0,2 mm 2 m/S 746 mmHg 83%
    16:00 +27°C° 0,2 mm 2 m/S 745 mmHg 80%
    17:00 +26°C° 0,6 mm 2 m/S 746 mmHg 82%
    18:00 +26°C° 0,6 mm 1 m/S 746 mmHg 83%
    19:00 +26°C° 0,6 mm 1 m/S 746 mmHg 85%
    20:00 +25°C° 0,3 mm 1 m/S 746 mmHg 86%
    21:00 +24°C° 0,3 mm 1 m/S 746 mmHg 87%
    22:00 +22°C° 0,3 mm 1 m/S 746 mmHg 88%
    23:00 +22°C° 0 mm 1 m/S 746 mmHg 88%

    19 Juli, Donnerstag

    Zeit Temperatur Niederschläge Wind Luftdruck Luftfeuchtigkeit
    00:00 +21°C° 0 mm 1 m/S 746 mmHg 89%
    01:00 +21°C° 0 mm 1 m/S 746 mmHg 89%
    02:00 +21°C° 0 mm 1 m/S 747 mmHg 90%
    03:00 +20°C° 0 mm 1 m/S 747 mmHg 90%
    04:00 +20°C° 0 mm 1 m/S 747 mmHg 90%
    05:00 +21°C° 0 mm 1 m/S 747 mmHg 89%
    06:00 +22°C° 0 mm 1 m/S 747 mmHg 88%
    07:00 +23°C° 0 mm 1 m/S 747 mmHg 86%
    08:00 +24°C° 0,3 mm 1 m/S 747 mmHg 83%
    09:00 +26°C° 0,3 mm 2 m/S 747 mmHg 79%
    10:00 +27°C° 0,3 mm 2 m/S 747 mmHg 75%
    11:00 +28°C° 0,7 mm 2 m/S 747 mmHg 72%
    12:00 +28°C° 0,7 mm 2 m/S 747 mmHg 68%
    13:00 +29°C° 0,7 mm 2 m/S 747 mmHg 65%
    14:00 +29°C° 0,4 mm 2 m/S 747 mmHg 64%
    15:00 +29°C° 0,4 mm 1 m/S 747 mmHg 62%
    16:00 +30°C° 0,4 mm 1 m/S 747 mmHg 61%
    17:00 +29°C° 0,1 mm 1 m/S 748 mmHg 65%
    18:00 +28°C° 0,1 mm 1 m/S 748 mmHg 70%
    19:00 +28°C° 0,1 mm 1 m/S 748 mmHg 74%
    20:00 +26°C° 0,5 mm 1 m/S 748 mmHg 78%
    21:00 +25°C° 0,5 mm 1 m/S 748 mmHg 83%
    22:00 +23°C° 0,5 mm 1 m/S 748 mmHg 87%
    23:00 +21°C° 0,3 mm 2 m/S 748 mmHg 89%

    20 Juli, Freitag

    Zeit Temperatur Niederschläge Wind Luftdruck Luftfeuchtigkeit
    00:00 +21°C° 0,3 mm 2 m/S 748 mmHg 90%
    01:00 +20°C° 0,3 mm 2 m/S 748 mmHg 92%
    02:00 +20°C° 0,1 mm 2 m/S 748 mmHg 93%
    03:00 +20°C° 0,1 mm 2 m/S 749 mmHg 94%
    04:00 +19°C° 0,1 mm 2 m/S 749 mmHg 95%
    05:00 +20°C° 0 mm 2 m/S 749 mmHg 94%
    06:00 +20°C° 0 mm 2 m/S 749 mmHg 93%
    07:00 +20°C° 0 mm 3 m/S 749 mmHg 93%
    08:00 +22°C° 0,1 mm 3 m/S 749 mmHg 89%
    09:00 +24°C° 0,1 mm 3 m/S 749 mmHg 86%
    10:00 +25°C° 0,1 mm 3 m/S 749 mmHg 82%
    11:00 +26°C° 0,1 mm 3 m/S 749 mmHg 79%
    12:00 +27°C° 0,1 mm 3 m/S 749 mmHg 77%
    13:00 +27°C° 0,1 mm 3 m/S 749 mmHg 74%
    14:00 +28°C° 0,1 mm 3 m/S 749 mmHg 73%
    15:00 +28°C° 0,1 mm 3 m/S 749 mmHg 72%
    16:00 +28°C° 0,1 mm 3 m/S 749 mmHg 71%
    17:00 +27°C° 0 mm 3 m/S 749 mmHg 75%
    18:00 +27°C° 0 mm 3 m/S 749 mmHg 78%
    19:00 +26°C° 0 mm 3 m/S 749 mmHg 82%
    20:00 +25°C° 0 mm 3 m/S 749 mmHg 86%
    21:00 +24°C° 0 mm 3 m/S 749 mmHg 90%
    22:00 +21°C° 0 mm 3 m/S 749 mmHg 93%
    23:00 +21°C° 0 mm 3 m/S 749 mmHg 94%

    21 Juli, Samstag

    Zeit Temperatur Niederschläge Wind Luftdruck Luftfeuchtigkeit
    00:00 +20°C° 0 mm 3 m/S 749 mmHg 94%
    01:00 +20°C° 0 mm 3 m/S 749 mmHg 94%
    02:00 +19°C° 0 mm 3 m/S 749 mmHg 95%
    03:00 +19°C° 0 mm 3 m/S 749 mmHg 95%
    04:00 +18°C° 0 mm 3 m/S 750 mmHg 95%
    05:00 +19°C° 0 mm 4 m/S 750 mmHg 93%
    06:00 +20°C° 0 mm 4 m/S 750 mmHg 91%
    07:00 +20°C° 0 mm 5 m/S 750 mmHg 90%
    08:00 +21°C° 0 mm 5 m/S 750 mmHg 86%
    09:00 +23°C° 0 mm 6 m/S 750 mmHg 82%
    10:00 +24°C° 0 mm 6 m/S 750 mmHg 79%
    11:00 +26°C° 0,1 mm 6 m/S 750 mmHg 76%
    12:00 +26°C° 0,1 mm 6 m/S 750 mmHg 73%
    13:00 +27°C° 0,1 mm 6 m/S 750 mmHg 71%
    14:00 +27°C° 0,4 mm 6 m/S 750 mmHg 71%
    15:00 +27°C° 0,4 mm 6 m/S 750 mmHg 71%
    16:00 +27°C° 0,4 mm 6 m/S 750 mmHg 71%
    17:00 +26°C° 0 mm 5 m/S 750 mmHg 73%
    18:00 +25°C° 0 mm 5 m/S 750 mmHg 75%
    19:00 +25°C° 0 mm 4 m/S 750 mmHg 77%
    20:00 +23°C° 0 mm 5 m/S 751 mmHg 76%
    21:00 +22°C° 0 mm 5 m/S 751 mmHg 75%
    22:00 +21°C° 0 mm 5 m/S 751 mmHg 75%
    23:00 +20°C° 0 mm 5 m/S 751 mmHg 74%
    Mehr zeigen